"Sample Date","Sample Time","Sample Value","Units","Flow Rate","Sample Interval","Number Channels","Micron Size 0","Counts/Channel 0","Micron Size 1","Counts/Channel 1","Micron Size 2","Counts/Channel 2","Micron Size 3","Counts/Channel 3","Micron Size 4","Counts/Channel 4","Micron Size 5","Counts/Channel 5","Micron Size 6","Counts/Channel 6","Micron Size 7","Counts/Channel 7","Micron Size 8","Counts/Channel 8","Micron Size 9","Counts/Channel 9","Micron Size 10","Counts/Channel 10","Micron Size 11","Counts/Channel 11","Micron Size 12","Counts/Channel 12","Micron Size 13","Counts/Channel 13","Micron Size 14","Counts/Channel 14","Micron Size 15","Counts/Channel 15","Micron Size 16","Counts/Channel 16","Micron Size 17","Counts/Channel 17","Micron Size 18","Counts/Channel 18","Micron Size 19","Counts/Channel 19","Micron Size 20","Counts/Channel 20","Micron Size 21","Counts/Channel 21","Micron Size 22","Counts/Channel 22","Micron Size 23","Counts/Channel 23","Micron Size 24","Counts/Channel 24","Micron Size 25","Counts/Channel 25","Micron Size 26","Counts/Channel 26","Micron Size 27","Counts/Channel 27","Micron Size 28","Counts/Channel 28","Micron Size 29","Counts/Channel 29","Micron Size 30","Counts/Channel 30","Micron Size 31","Counts/Channel 31"
"03/07/08","16:00:02",26625.000,"cc",28244.678,6.00,6,0.100,18079.000,0.200,6033.000,0.300,1391.000,0.500,951.000,1.000,171.000,5.000,0
"03/07/08","16:00:08",26664.000,"cc",28233.650,6.00,6,0.100,18326.000,0.200,5940.000,0.300,1369.000,0.500,851.000,1.000,178.000,5.000,0
"03/07/08","16:00:14",25783.000,"cc",28315.193,6.00,6,0.100,17816.000,0.200,5868.000,0.300,1142.000,0.500,815.000,1.000,142.000,5.000,0
"03/07/08","16:00:20",26472.000,"cc",28336.453,6.00,6,0.100,18175.000,0.200,5983.000,0.300,1266.000,0.500,889.000,1.000,159.000,5.000,0
"03/07/08","16:00:26",26187.000,"cc",28326.846,6.00,6,0.100,18043.000,0.200,5967.000,0.300,1192.000,0.500,857.000,1.000,128.000,5.000,0
"03/07/08","16:00:32",26342.000,"cc",28327.791,6.00,6,0.100,18178.000,0.200,5952.000,0.300,1246.000,0.500,831.000,1.000,135.000,5.000,0
"03/07/08","16:00:38",26642.000,"cc",28307.342,6.00,6,0.100,18304.000,0.200,6070.000,0.300,1287.000,0.500,820.000,1.000,161.000,5.000,0
"03/07/08","16:00:44",31322.000,"cc",28253.727,6.00,6,0.100,20872.000,0.200,7101.000,0.300,1856.000,0.500,1250.000,1.000,243.000,5.000,0
"03/07/08","16:00:50",30685.000,"cc",28335.572,6.00,6,0.100,21233.000,0.200,6631.000,0.300,1537.000,0.500,1034.000,1.000,250.000,5.000,0
"03/07/08","16:00:56",27900.000,"cc",28320.938,6.00,6,0.100,19120.000,0.200,6227.000,0.300,1416.000,0.500,958.000,1.000,179.000,5.000,0
"03/07/08","16:01:02",25830.000,"cc",28319.486,6.00,6,0.100,17748.000,0.200,5872.000,0.300,1238.000,0.500,823.000,1.000,149.000,5.000,0
"03/07/08","16:01:08",27489.000,"cc",28317.174,6.00,6,0.100,18582.000,0.200,6319.000,0.300,1420.000,0.500,967.000,1.000,201.000,5.000,0
"03/07/08","16:01:14",27530.000,"cc",28349.705,6.00,6,0.100,18616.000,0.200,6244.000,0.300,1478.000,0.500,1008.000,1.000,184.000,5.000,0
"03/07/08","16:01:20",25948.000,"cc",28340.469,6.00,6,0.100,17793.000,0.200,5923.000,0.300,1275.000,0.500,844.000,1.000,113.000,5.000,0
"03/07/08","16:01:26",28531.000,"cc",28350.943,6.00,6,0.100,19414.000,0.200,6365.000,0.300,1554.000,0.500,987.000,1.000,211.000,5.000,0
"03/07/08","16:01:32",26018.000,"cc",28310.309,6.00,6,0.100,17982.000,0.200,5862.000,0.300,1204.000,0.500,813.000,1.000,157.000,5.000,0
"03/07/08","16:01:38",26244.000,"cc",28278.383,6.00,6,0.100,17816.000,0.200,6130.000,0.300,1331.000,0.500,835.000,1.000,132.000,5.000,0
"03/07/08","16:01:44",27132.000,"cc",28348.863,6.00,6,0.100,18397.000,0.200,6148.000,0.300,1426.000,0.500,955.000,1.000,206.000,5.000,0
"03/07/08","16:01:50",27181.000,"cc",28352.469,6.00,6,0.100,18472.000,0.200,6193.000,0.300,1419.000,0.500,908.000,1.000,189.000,5.000,0
"03/07/08","16:01:56",29496.000,"cc",28293.877,6.00,6,0.100,20128.000,0.200,6533.000,0.300,1572.000,0.500,1048.000,1.000,215.000,5.000,0
"03/07/08","16:02:02",32025.000,"cc",28299.258,6.00,6,0.100,22524.000,0.200,6864.000,0.300,1496.000,0.500,953.000,1.000,188.000,5.000,0
"03/07/08","16:02:08",29949.000,"cc",28342.400,6.00,6,0.100,20313.000,0.200,6763.000,0.300,1590.000,0.500,1061.000,1.000,222.000,5.000,0
"03/07/08","16:02:14",35086.000,"cc",28338.287,6.00,6,0.100,24988.000,0.200,7300.000,0.300,1559.000,0.500,979.000,1.000,260.000,5.000,0
"03/07/08","16:02:20",30164.000,"cc",28267.440,6.00,6,0.100,20956.000,0.200,6506.000,0.300,1489.000,0.500,1012.000,1.000,201.000,5.000,0
"03/07/08","16:02:26",26651.000,"cc",28271.797,6.00,6,0.100,17988.000,0.200,6117.000,0.300,1422.000,0.500,921.000,1.000,203.000,5.000,0
"03/07/08","16:02:32",26405.000,"cc",28295.633,6.00,6,0.100,18002.000,0.200,6076.000,0.300,1317.000,0.500,859.000,1.000,151.000,5.000,0
"03/07/08","16:02:38",27215.000,"cc",28367.572,6.00,6,0.100,18711.000,0.200,5988.000,0.300,1387.000,0.500,921.000,1.000,208.000,5.000,0
"03/07/08","16:02:44",26955.000,"cc",28315.086,6.00,6,0.100,18213.000,0.200,6105.000,0.300,1419.000,0.500,1012.000,1.000,206.000,5.000,0
"03/07/08","16:02:50",27580.000,"cc",28290.078,6.00,6,0.100,18615.000,0.200,6222.000,0.300,1474.000,0.500,1064.000,1.000,205.000,5.000,0
"03/07/08","16:02:56",26777.000,"cc",28311.918,6.00,6,0.100,18281.000,0.200,6031.000,0.300,1378.000,0.500,906.000,1.000,181.000,5.000,0
"03/07/08","16:03:02",26212.000,"cc",28312.682,6.00,6,0.100,17774.000,0.200,6105.000,0.300,1301.000,0.500,875.000,1.000,157.000,5.000,0
"03/07/08","16:03:08",26378.000,"cc",28293.541,6.00,6,0.100,17743.000,0.200,6041.000,0.300,1423.000,0.500,966.000,1.000,205.000,5.000,0
"03/07/08","16:03:14",28280.000,"cc",28342.117,6.00,6,0.100,19341.000,0.200,6271.000,0.300,1462.000,0.500,1013.000,1.000,193.000,5.000,0
"03/07/08","16:03:20",26832.000,"cc",28339.428,6.00,6,0.100,18401.000,0.200,6032.000,0.300,1363.000,0.500,881.000,1.000,155.000,5.000,0
"03/07/08","16:03:26",33345.000,"cc",28277.539,6.00,6,0.100,24018.000,0.200,6784.000,0.300,1443.000,0.500,912.000,1.000,188.000,5.000,0
"03/07/08","16:03:32",27812.000,"cc",28362.166,6.00,6,0.100,19293.000,0.200,6050.000,0.300,1371.000,0.500,923.000,1.000,175.000,5.000,0
"03/07/08","16:03:38",30155.000,"cc",28337.586,6.00,6,0.100,20420.000,0.200,6609.000,0.300,1654.000,0.500,1212.000,1.000,260.000,5.000,0
"03/07/08","16:03:44",28826.000,"cc",28244.539,6.00,6,0.100,19043.000,0.200,6647.000,0.300,1733.000,0.500,1169.000,1.000,234.000,5.000,0
"03/07/08","16:03:50",28392.000,"cc",28330.563,6.00,6,0.100,18814.000,0.200,6622.000,0.300,1637.000,0.500,1067.000,1.000,252.000,5.000,0
"03/07/08","16:03:56",28046.000,"cc",28358.795,6.00,6,0.100,18743.000,0.200,6452.000,0.300,1487.000,0.500,1137.000,1.000,227.000,5.000,0
"03/07/08","16:04:02",29862.000,"cc",28327.998,6.00,6,0.100,19698.000,0.200,6694.000,0.300,1900.000,0.500,1314.000,1.000,256.000,5.000,0
"03/07/08","16:04:08",27651.000,"cc",28287.293,6.00,6,0.100,18371.000,0.200,6304.000,0.300,1573.000,0.500,1137.000,1.000,266.000,5.000,0
"03/07/08","16:04:14",28502.000,"cc",28319.352,6.00,6,0.100,19099.000,0.200,6457.000,0.300,1652.000,0.500,1057.000,1.000,237.000,5.000,0
"03/07/08","16:04:20",27329.000,"cc",28347.996,6.00,6,0.100,18466.000,0.200,6200.000,0.300,1477.000,0.500,997.000,1.000,189.000,5.000,0
"03/07/08","16:04:26",35196.000,"cc",28325.408,6.00,6,0.100,25359.000,0.200,7077.000,0.300,1483.000,0.500,1048.000,1.000,229.000,5.000,0
"03/07/08","16:04:32",42791.000,"cc",28325.836,6.00,6,0.100,31154.000,0.200,8248.000,0.300,1881.000,0.500,1228.000,1.000,280.000,5.000,0
"03/07/08","16:04:38",44454.000,"cc",28434.510,6.00,6,0.100,33087.000,0.200,8185.000,0.300,1685.000,0.500,1230.000,1.000,267.000,5.000,0
"03/07/08","16:04:44",31126.000,"cc",28181.168,6.00,6,0.100,21859.000,0.200,6573.000,0.300,1373.000,0.500,1087.000,1.000,234.000,5.000,0
"03/07/08","16:04:50",27167.000,"cc",28285.035,6.00,6,0.100,18377.000,0.200,6145.000,0.300,1371.000,0.500,1041.000,1.000,233.000,5.000,0
"03/07/08","16:04:56",27479.000,"cc",28251.869,6.00,6,0.100,18251.000,0.200,6353.000,0.300,1552.000,0.500,1089.000,1.000,234.000,5.000,0
"03/07/08","16:05:02",28592.000,"cc",28374.559,6.00,6,0.100,19197.000,0.200,6292.000,0.300,1613.000,0.500,1207.000,1.000,283.000,5.000,0
"03/07/08","16:05:08",27734.000,"cc",28324.941,6.00,6,0.100,18437.000,0.200,6369.000,0.300,1594.000,0.500,1112.000,1.000,222.000,5.000,0
"03/07/08","16:05:14",27539.000,"cc",28233.580,6.00,6,0.100,18344.000,0.200,6262.000,0.300,1572.000,0.500,1128.000,1.000,233.000,5.000,0
"03/07/08","16:05:20",26800.000,"cc",28412.779,6.00,6,0.100,18259.000,0.200,5966.000,0.300,1420.000,0.500,974.000,1.000,181.000,5.000,0
"03/07/08","16:05:26",26863.000,"cc",28359.850,6.00,6,0.100,18187.000,0.200,6046.000,0.300,1424.000,0.500,1011.000,1.000,195.000,5.000,0
"03/07/08","16:05:32",27066.000,"cc",28258.744,6.00,6,0.100,17984.000,0.200,6249.000,0.300,1532.000,0.500,1076.000,1.000,225.000,5.000,0
"03/07/08","16:05:38",28193.000,"cc",28311.453,6.00,6,0.100,18989.000,0.200,6362.000,0.300,1499.000,0.500,1077.000,1.000,266.000,5.000,0
"03/07/08","16:05:44",28412.000,"cc",28270.643,6.00,6,0.100,18978.000,0.200,6418.000,0.300,1604.000,0.500,1162.000,1.000,250.000,5.000,0
"03/07/08","16:05:50",29130.000,"cc",28327.254,6.00,6,0.100,19095.000,0.200,6604.000,0.300,1837.000,0.500,1287.000,1.000,307.000,5.000,0
"03/07/08","16:05:56",28944.000,"cc",28331.674,6.00,6,0.100,19360.000,0.200,6703.000,0.300,1502.000,0.500,1121.000,1.000,258.000,5.000,0
"03/07/08","16:06:02",28256.000,"cc",28349.109,6.00,6,0.100,18715.000,0.200,6450.000,0.300,1660.000,0.500,1164.000,1.000,267.000,5.000,0
"03/07/08","16:06:08",27548.000,"cc",28303.758,6.00,6,0.100,18121.000,0.200,6304.000,0.300,1664.000,0.500,1186.000,1.000,273.000,5.000,0
"03/07/08","16:06:14",26937.000,"cc",28283.492,6.00,6,0.100,17790.000,0.200,6219.000,0.300,1549.000,0.500,1106.000,1.000,273.000,5.000,0
"03/07/08","16:06:20",27870.000,"cc",28398.783,6.00,6,0.100,18556.000,0.200,6390.000,0.300,1493.000,0.500,1148.000,1.000,283.000,5.000,0
"03/07/08","16:06:26",27823.000,"cc",28291.102,6.00,6,0.100,18821.000,0.200,6208.000,0.300,1481.000,0.500,1072.000,1.000,241.000,5.000,0
"03/07/08","16:06:32",34972.000,"cc",28315.182,6.00,6,0.100,23966.000,0.200,7262.000,0.300,1977.000,0.500,1410.000,1.000,357.000,5.000,0
"03/07/08","16:06:38",27484.000,"cc",28309.412,6.00,6,0.100,18153.000,0.200,6360.000,0.300,1590.000,0.500,1130.000,1.000,251.000,5.000,0
"03/07/08","16:06:44",28227.000,"cc",28330.160,6.00,6,0.100,19048.000,0.200,6373.000,0.300,1457.000,0.500,1083.000,1.000,266.000,5.000,0
"03/07/08","16:06:50",29036.000,"cc",28349.008,6.00,6,0.100,19260.000,0.200,6517.000,0.300,1687.000,0.500,1296.000,1.000,276.000,5.000,0
"03/07/08","16:06:56",30865.000,"cc",28318.066,6.00,6,0.100,19926.000,0.200,6976.000,0.300,2120.000,0.500,1489.000,1.000,354.000,5.000,0
"03/07/08","16:07:02",28227.000,"cc",28298.940,6.00,6,0.100,18512.000,0.200,6355.000,0.300,1788.000,0.500,1258.000,1.000,314.000,5.000,0
"03/07/08","16:07:08",27045.000,"cc",28246.191,6.00,6,0.100,17894.000,0.200,6091.000,0.300,1571.000,0.500,1181.000,1.000,308.000,5.000,0
"03/07/08","16:07:14",28009.000,"cc",28361.109,6.00,6,0.100,18281.000,0.200,6373.000,0.300,1757.000,0.500,1330.000,1.000,268.000,5.000,0
"03/07/08","16:07:20",35406.000,"cc",28334.072,6.00,6,0.100,24731.000,0.200,7145.000,0.300,1827.000,0.500,1374.000,1.000,329.000,5.000,0
"03/07/08","16:07:26",31992.000,"cc",28373.213,6.00,6,0.100,22044.000,0.200,6825.000,0.300,1652.000,0.500,1188.000,1.000,283.000,5.000,0
"03/07/08","16:07:32",36659.000,"cc",28278.516,6.00,6,0.100,25982.000,0.200,7194.000,0.300,1796.000,0.500,1329.000,1.000,358.000,5.000,0
"03/07/08","16:07:38",32430.000,"cc",28260.336,6.00,6,0.100,22086.000,0.200,6996.000,0.300,1749.000,0.500,1296.000,1.000,303.000,5.000,0
"03/07/08","16:07:44",29431.000,"cc",28326.422,6.00,6,0.100,19694.000,0.200,6426.000,0.300,1727.000,0.500,1286.000,1.000,298.000,5.000,0
"03/07/08","16:07:50",28387.000,"cc",28344.813,6.00,6,0.100,18836.000,0.200,6286.000,0.300,1689.000,0.500,1290.000,1.000,286.000,5.000,0
"03/07/08","16:07:56",26875.000,"cc",28340.330,6.00,6,0.100,17701.000,0.200,6154.000,0.300,1576.000,0.500,1184.000,1.000,260.000,5.000,0
"03/07/08","16:08:02",28795.000,"cc",28329.139,6.00,6,0.100,19494.000,0.200,6247.000,0.300,1518.000,0.500,1212.000,1.000,324.000,5.000,0
"03/07/08","16:08:08",28530.000,"cc",28316.363,6.00,6,0.100,19418.000,0.200,6325.000,0.300,1466.000,0.500,1053.000,1.000,268.000,5.000,0
"03/07/08","16:08:14",29658.000,"cc",28296.236,6.00,6,0.100,19961.000,0.200,6565.000,0.300,1676.000,0.500,1152.000,1.000,304.000,5.000,0
"03/07/08","16:08:20",53635.000,"cc",28310.867,6.00,6,0.100,40416.000,0.200,9551.000,0.300,1954.000,0.500,1352.000,1.000,362.000,5.000,0
"03/07/08","16:08:26",31424.000,"cc",28277.555,6.00,6,0.100,21612.000,0.200,6612.000,0.300,1643.000,0.500,1233.000,1.000,324.000,5.000,0
"03/07/08","16:08:32",27896.000,"cc",28360.453,6.00,6,0.100,18550.000,0.200,6207.000,0.300,1604.000,0.500,1223.000,1.000,312.000,5.000,0
"03/07/08","16:08:38",28313.000,"cc",28329.307,6.00,6,0.100,18734.000,0.200,6363.000,0.300,1679.000,0.500,1233.000,1.000,304.000,5.000,0
"03/07/08","16:08:44",27866.000,"cc",28307.477,6.00,6,0.100,18419.000,0.200,6231.000,0.300,1662.000,0.500,1243.000,1.000,311.000,5.000,0
"03/07/08","16:08:50",28582.000,"cc",28291.313,6.00,6,0.100,18827.000,0.200,6408.000,0.300,1681.000,0.500,1357.000,1.000,309.000,5.000,0
"03/07/08","16:08:56",28056.000,"cc",28258.363,6.00,6,0.100,18714.000,0.200,6211.000,0.300,1575.000,0.500,1255.000,1.000,301.000,5.000,0
"03/07/08","16:09:02",27876.000,"cc",28323.553,6.00,6,0.100,18374.000,0.200,6288.000,0.300,1590.000,0.500,1338.000,1.000,286.000,5.000,0
"03/07/08","16:09:08",27341.000,"cc",28302.684,6.00,6,0.100,18141.000,0.200,6168.000,0.300,1562.000,0.500,1157.000,1.000,313.000,5.000,0
"03/07/08","16:09:14",26845.000,"cc",28392.340,6.00,6,0.100,17723.000,0.200,6012.000,0.300,1552.000,0.500,1226.000,1.000,332.000,5.000,0
"03/07/08","16:09:20",28087.000,"cc",28252.047,6.00,6,0.100,18205.000,0.200,6291.000,0.300,1785.000,0.500,1431.000,1.000,375.000,5.000,0
"03/07/08","16:09:26",27822.000,"cc",28381.404,6.00,6,0.100,18206.000,0.200,6122.000,0.300,1700.000,0.500,1454.000,1.000,340.000,5.000,0
"03/07/08","16:09:32",26615.000,"cc",28332.377,6.00,6,0.100,17461.000,0.200,5935.000,0.300,1619.000,0.500,1281.000,1.000,319.000,5.000,0
"03/07/08","16:09:38",26541.000,"cc",28305.713,6.00,6,0.100,17359.000,0.200,6005.000,0.300,1568.000,0.500,1279.000,1.000,330.000,5.000,0
"03/07/08","16:09:44",25436.000,"cc",28286.113,6.00,6,0.100,16577.000,0.200,5985.000,0.300,1442.000,0.500,1164.000,1.000,268.000,5.000,0
"03/07/08","16:09:50",26139.000,"cc",28256.932,6.00,6,0.100,17135.000,0.200,5988.000,0.300,1505.000,0.500,1221.000,1.000,290.000,5.000,0
"03/07/08","16:09:56",25448.000,"cc",28373.201,6.00,6,0.100,16945.000,0.200,5641.000,0.300,1400.000,0.500,1181.000,1.000,281.000,5.000,0
"03/07/08","16:10:02",26617.000,"cc",28259.254,6.00,6,0.100,17296.000,0.200,6067.000,0.300,1627.000,0.500,1311.000,1.000,316.000,5.000,0
"03/07/08","16:10:08",26464.000,"cc",28319.598,6.00,6,0.100,17401.000,0.200,5787.000,0.300,1642.000,0.500,1319.000,1.000,315.000,5.000,0
"03/07/08","16:10:14",27100.000,"cc",28372.309,6.00,6,0.100,17660.000,0.200,6095.000,0.300,1620.000,0.500,1378.000,1.000,347.000,5.000,0
"03/07/08","16:10:20",26682.000,"cc",28326.100,6.00,6,0.100,17422.000,0.200,5938.000,0.300,1641.000,0.500,1384.000,1.000,297.000,5.000,0
"03/07/08","16:10:26",26222.000,"cc",28229.418,6.00,6,0.100,17139.000,0.200,5759.000,0.300,1664.000,0.500,1355.000,1.000,305.000,5.000,0
"03/07/08","16:10:32",27634.000,"cc",28321.336,6.00,6,0.100,17968.000,0.200,6249.000,0.300,1678.000,0.500,1391.000,1.000,348.000,5.000,0
"03/07/08","16:10:38",26439.000,"cc",28272.475,6.00,6,0.100,17321.000,0.200,5896.000,0.300,1593.000,0.500,1276.000,1.000,353.000,5.000,0
"03/07/08","16:10:44",26169.000,"cc",28393.793,6.00,6,0.100,17180.000,0.200,5787.000,0.300,1592.000,0.500,1288.000,1.000,322.000,5.000,0
"03/07/08","16:10:50",27275.000,"cc",28302.057,6.00,6,0.100,17954.000,0.200,6024.000,0.300,1620.000,0.500,1342.000,1.000,335.000,5.000,0
"03/07/08","16:10:56",27075.000,"cc",28349.658,6.00,6,0.100,17819.000,0.200,5982.000,0.300,1636.000,0.500,1293.000,1.000,345.000,5.000,0
"03/07/08","16:11:02",26594.000,"cc",28353.807,6.00,6,0.100,17594.000,0.200,5837.000,0.300,1583.000,0.500,1217.000,1.000,363.000,5.000,0
"03/07/08","16:11:08",26619.000,"cc",28299.256,6.00,6,0.100,17610.000,0.200,5801.000,0.300,1618.000,0.500,1249.000,1.000,341.000,5.000,0
"03/07/08","16:11:14",26598.000,"cc",28307.705,6.00,6,0.100,17443.000,0.200,5820.000,0.300,1648.000,0.500,1319.000,1.000,368.000,5.000,0
"03/07/08","16:11:20",26991.000,"cc",28356.254,6.00,6,0.100,17496.000,0.200,5899.000,0.300,1720.000,0.500,1462.000,1.000,414.000,5.000,0
"03/07/08","16:11:26",26812.000,"cc",28315.322,6.00,6,0.100,17447.000,0.200,5956.000,0.300,1657.000,0.500,1367.000,1.000,385.000,5.000,0
"03/07/08","16:11:32",26564.000,"cc",28243.973,6.00,6,0.100,17535.000,0.200,5741.000,0.300,1623.000,0.500,1329.000,1.000,336.000,5.000,0
"03/07/08","16:11:38",26465.000,"cc",28271.748,6.00,6,0.100,17286.000,0.200,5856.000,0.300,1619.000,0.500,1353.000,1.000,351.000,5.000,0
"03/07/08","16:11:44",26492.000,"cc",28386.588,6.00,6,0.100,17300.000,0.200,5815.000,0.300,1650.000,0.500,1382.000,1.000,345.000,5.000,0
"03/07/08","16:11:50",28327.000,"cc",28252.811,6.00,6,0.100,18799.000,0.200,6026.000,0.300,1664.000,0.500,1434.000,1.000,404.000,5.000,0
"03/07/08","16:11:56",27523.000,"cc",28370.201,6.00,6,0.100,18070.000,0.200,5974.000,0.300,1641.000,0.500,1460.000,1.000,378.000,5.000,0
"03/07/08","16:12:02",26911.000,"cc",28320.574,6.00,6,0.100,17694.000,0.200,5903.000,0.300,1646.000,0.500,1349.000,1.000,319.000,5.000,0
"03/07/08","16:12:08",30688.000,"cc",28302.373,6.00,6,0.100,20529.000,0.200,6410.000,0.300,1826.000,0.500,1533.000,1.000,390.000,5.000,0
"03/07/08","16:12:14",29914.000,"cc",28348.496,6.00,6,0.100,20199.000,0.200,6321.000,0.300,1625.000,0.500,1390.000,1.000,379.000,5.000,0
"03/07/08","16:12:20",28718.000,"cc",28244.732,6.00,6,0.100,18704.000,0.200,6199.000,0.300,1901.000,0.500,1526.000,1.000,388.000,5.000,0
"03/07/08","16:12:26",27803.000,"cc",28386.924,6.00,6,0.100,17968.000,0.200,6213.000,0.300,1709.000,0.500,1490.000,1.000,423.000,5.000,0
"03/07/08","16:12:32",26653.000,"cc",28364.012,6.00,6,0.100,17408.000,0.200,5804.000,0.300,1657.000,0.500,1411.000,1.000,373.000,5.000,0
"03/07/08","16:12:38",27114.000,"cc",28272.525,6.00,6,0.100,17577.000,0.200,5946.000,0.300,1786.000,0.500,1412.000,1.000,393.000,5.000,0
"03/07/08","16:12:44",26689.000,"cc",28319.842,6.00,6,0.100,17365.000,0.200,5861.000,0.300,1673.000,0.500,1417.000,1.000,373.000,5.000,0
"03/07/08","16:12:50",26403.000,"cc",28318.637,6.00,6,0.100,17144.000,0.200,5773.000,0.300,1675.000,0.500,1445.000,1.000,366.000,5.000,0
"03/07/08","16:12:56",26299.000,"cc",28273.979,6.00,6,0.100,17219.000,0.200,5624.000,0.300,1681.000,0.500,1433.000,1.000,342.000,5.000,0
"03/07/08","16:13:02",26633.000,"cc",28288.354,6.00,6,0.100,17573.000,0.200,5735.000,0.300,1615.000,0.500,1344.000,1.000,366.000,5.000,0
"03/07/08","16:13:08",36622.000,"cc",28373.457,6.00,6,0.100,25930.000,0.200,6951.000,0.300,1836.000,0.500,1471.000,1.000,434.000,5.000,0
"03/07/08","16:13:14",30760.000,"cc",28382.047,6.00,6,0.100,21020.000,0.200,6199.000,0.300,1684.000,0.500,1468.000,1.000,389.000,5.000,0
"03/07/08","16:13:20",28234.000,"cc",28262.324,6.00,6,0.100,18881.000,0.200,5874.000,0.300,1663.000,0.500,1440.000,1.000,376.000,5.000,0
"03/07/08","16:13:26",28281.000,"cc",28276.514,6.00,6,0.100,18845.000,0.200,5933.000,0.300,1723.000,0.500,1428.000,1.000,352.000,5.000,0
"03/07/08","16:13:32",27337.000,"cc",28341.051,6.00,6,0.100,18063.000,0.200,5778.000,0.300,1662.000,0.500,1431.000,1.000,403.000,5.000,0
"03/07/08","16:13:38",26095.000,"cc",28307.447,6.00,6,0.100,16975.000,0.200,5728.000,0.300,1642.000,0.500,1372.000,1.000,378.000,5.000,0
"03/07/08","16:13:44",27015.000,"cc",28317.641,6.00,6,0.100,17723.000,0.200,5839.000,0.300,1710.000,0.500,1352.000,1.000,391.000,5.000,0
"03/07/08","16:13:50",28242.000,"cc",28354.238,6.00,6,0.100,18530.000,0.200,6032.000,0.300,1823.000,0.500,1410.000,1.000,447.000,5.000,0
"03/07/08","16:13:56",27455.000,"cc",28333.016,6.00,6,0.100,18096.000,0.200,5836.000,0.300,1705.000,0.500,1437.000,1.000,381.000,5.000,0
"03/07/08","16:14:02",26855.000,"cc",28370.723,6.00,6,0.100,17747.000,0.200,5699.000,0.300,1642.000,0.500,1418.000,1.000,349.000,5.000,0
"03/07/08","16:14:08",27555.000,"cc",28271.918,6.00,6,0.100,18454.000,0.200,5969.000,0.300,1528.000,0.500,1275.000,1.000,329.000,5.000,0
"03/07/08","16:14:14",26523.000,"cc",28258.506,6.00,6,0.100,17666.000,0.200,5707.000,0.300,1536.000,0.500,1283.000,1.000,331.000,5.000,0
"03/07/08","16:14:20",27646.000,"cc",28313.145,6.00,6,0.100,18350.000,0.200,5857.000,0.300,1696.000,0.500,1397.000,1.000,346.000,5.000,0
"03/07/08","16:14:26",30448.000,"cc",28374.815,6.00,6,0.100,20049.000,0.200,6522.000,0.300,1892.000,0.500,1555.000,1.000,430.000,5.000,0
"03/07/08","16:14:32",26386.000,"cc",28320.594,6.00,6,0.100,17430.000,0.200,5612.000,0.300,1644.000,0.500,1314.000,1.000,386.000,5.000,0
"03/07/08","16:14:38",26883.000,"cc",28310.043,6.00,6,0.100,17724.000,0.200,5815.000,0.300,1606.000,0.500,1400.000,1.000,338.000,5.000,0
"03/07/08","16:14:44",28445.000,"cc",28336.766,6.00,6,0.100,18533.000,0.200,5950.000,0.300,1924.000,0.500,1565.000,1.000,473.000,5.000,0
"03/07/08","16:14:50",26712.000,"cc",28296.061,6.00,6,0.100,17372.000,0.200,5813.000,0.300,1671.000,0.500,1463.000,1.000,393.000,5.000,0
"03/07/08","16:14:56",26493.000,"cc",28272.000,6.00,6,0.100,17422.000,0.200,5663.000,0.300,1669.000,0.500,1380.000,1.000,359.000,5.000,0
"03/07/08","16:15:02",26267.000,"cc",28231.697,6.00,6,0.100,17240.000,0.200,5764.000,0.300,1582.000,0.500,1352.000,1.000,329.000,5.000,0
"03/07/08","16:15:08",26274.000,"cc",28358.580,6.00,6,0.100,17278.000,0.200,5743.000,0.300,1609.000,0.500,1331.000,1.000,313.000,5.000,0
"03/07/08","16:15:14",26322.000,"cc",28332.918,6.00,6,0.100,17372.000,0.200,5673.000,0.300,1576.000,0.500,1345.000,1.000,356.000,5.000,0
"03/07/08","16:15:20",26235.000,"cc",28390.039,6.00,6,0.100,17306.000,0.200,5579.000,0.300,1553.000,0.500,1406.000,1.000,391.000,5.000,0
"03/07/08","16:15:26",27050.000,"cc",28338.930,6.00,6,0.100,17823.000,0.200,5701.000,0.300,1637.000,0.500,1500.000,1.000,389.000,5.000,0
"03/07/08","16:15:32",25645.000,"cc",28305.908,6.00,6,0.100,17027.000,0.200,5424.000,0.300,1545.000,0.500,1308.000,1.000,341.000,5.000,0
"03/07/08","16:15:38",26412.000,"cc",28314.811,6.00,6,0.100,17264.000,0.200,5570.000,0.300,1693.000,0.500,1459.000,1.000,426.000,5.000,0
"03/07/08","16:15:44",28089.000,"cc",28259.549,6.00,6,0.100,18100.000,0.200,5998.000,0.300,1961.000,0.500,1629.000,1.000,401.000,5.000,0
"03/07/08","16:15:50",27268.000,"cc",28334.731,6.00,6,0.100,17684.000,0.200,5872.000,0.300,1790.000,0.500,1505.000,1.000,417.000,5.000,0
"03/07/08","16:15:56",26410.000,"cc",28368.551,6.00,6,0.100,17320.000,0.200,5690.000,0.300,1640.000,0.500,1363.000,1.000,397.000,5.000,0
"03/07/08","16:16:02",26529.000,"cc",28344.697,6.00,6,0.100,17508.000,0.200,5626.000,0.300,1627.000,0.500,1388.000,1.000,380.000,5.000,0
"03/07/08","16:16:08",26807.000,"cc",28252.197,6.00,6,0.100,17405.000,0.200,5703.000,0.300,1763.000,0.500,1526.000,1.000,410.000,5.000,0
"03/07/08","16:16:14",26165.000,"cc",28319.979,6.00,6,0.100,17080.000,0.200,5564.000,0.300,1682.000,0.500,1468.000,1.000,371.000,5.000,0
"03/07/08","16:16:20",26380.000,"cc",28268.697,6.00,6,0.100,17277.000,0.200,5663.000,0.300,1608.000,0.500,1453.000,1.000,379.000,5.000,0